1487926800.37,57903,8.5,71624.5,-5.07,-25.81,-26.29,0,*5B
1487926801.63,57904,8.5,71672.8,-5.07,-25.61,-25.97,0,*54
1487926802.88,57905,8.5,71654.3,-5.05,-25.45,-25.81,0,*56
1487926804.14,57906,8.5,71634.8,-5.07,-25.55,-25.91,0,*57
1487926805.38,57907,8.5,71656.0,-5.07,-25.39,-25.65,0,*57
1487926806.61,57908,8.5,71654.0,-5.09,-25.29,-25.65,0,*57
1487926807.87,57909,8.5,71672.8,-5.11,-25.19,-25.55,0,*5F
1487926809.08,57910,8.5,71634.5,-5.09,-25.13,-25.49,0,*59
1487926810.34,57911,8.5,71664.0,-5.07,-25.13,-25.45,0,*5A
1487926811.6,57912,8.5,71654.8,-5.07,-25.13,-25.55,0,*58
1487926812.86,57913,8.5,71632.8,-5.09,-25.55,-25.81,0,*5C
1487926814.12,57914,8.5,71578.0,-5.11,-25.49,-25.75,0,*54
1487926815.33,57915,8.5,71616.0,-5.09,-25.35,-25.61,0,*52
1487926816.57,57916,8.5,71652.0,-5.09,-25.03,-25.35,0,*55
1487926817.77,57917,8.5,71648.3,-5.09,-24.97,-25.19,0,*56
1487926818.98,57918,8.5,71658.5,-5.09,-25.09,-25.39,0,*5D
1487926820.23,57919,8.5,71684.8,-5.11,-25.23,-25.55,0,*57
1487926821.49,57920,8.5,71662.8,-5.07,-24.97,-25.29,0,*5F
1487926822.75,57921,8.5,71674.8,-5.09,-25.03,-25.29,0,*5C
1487926823.98,57922,8.5,71706.0,-5.09,-24.97,-25.29,0,*53
1487926825.2,57923,8.5,71694.5,-5.07,-24.93,-25.13,0,*51
1487926826.48,57924,8.5,71624.3,-5.07,-25.45,-25.81,0,*57
1487926827.7,57925,8.5,71668.8,-5.09,-24.93,-25.29,0,*50
1487926828.96,57926,8.5,71676.8,-5.09,-24.67,-25.03,0,*50
1487926830.17,57927,8.5,71644.0,-5.09,-24.47,-24.97,0,*5F
1487926831.4,57928,8.5,71564.0,-5.09,-25.45,-25.87,0,*53
1487926832.68,57929,8.5,71548.8,-5.07,-25.81,-26.29,0,*53
1487926833.89,57930,8.5,71500.8,-5.09,-26.03,-26.49,0,*5A
1487926835.12,57931,8.5,71596.8,-5.09,-25.97,-26.49,0,*55
1487926836.36,57932,8.5,71572.5,-5.11,-25.49,-26.07,0,*56
1487926837.62,57933,8.5,71606.0,-5.11,-25.65,-26.33,0,*5E
1487926838.85,57934,8.5,71606.3,-5.13,-25.75,-26.39,0,*50
1487926840.12,57935,8.5,71612.3,-5.13,-25.55,-26.17,0,*5F
1487926841.36,57936,8.5,71604.3,-5.17,-24.21,-24.77,0,*5E
1487926842.57,57937,8.5,71622.5,-5.13,-24.61,-25.35,0,*58
1487926843.77,57938,8.5,71604.5,-5.13,-24.57,-25.19,0,*5C
1487926845.02,57939,8.5,71684.3,-5.13,-24.71,-25.39,0,*5B
1487926846.23,57940,8.5,71672.8,-5.13,-24.61,-25.35,0,*58
1487926847.49,57941,8.5,71632.5,-5.13,-25.03,-25.55,0,*5A
1487926848.78,57942,8.5,71664.8,-5.11,-25.03,-25.71,0,*5D
1487926850.01,57943,8.5,71684.3,-5.11,-25.19,-25.87,0,*5E
1487926851.26,57944,8.5,71662.3,-5.11,-25.19,-25.75,0,*54
1487926852.49,57945,8.5,71674.5,-5.11,-25.09,-25.65,0,*55
1487926853.75,57946,8.56,71692.8,-5.11,-25.09,-25.75,0,*57
1487926855.01,57947,8.5,71666.8,-5.11,-25.09,-25.75,0,*56
1487926856.27,57948,8.5,71684.3,-5.11,-25.49,-26.17,0,*5A
1487926857.5,57949,8.5,71680.8,-5.13,-25.23,-25.75,0,*52
1487926858.71,57950,8.5,71656.0,-5.13,-25.49,-25.91,0,*5C
1487926859.97,57951,8.5,71624.5,-5.17,-25.75,-26.29,0,*56
1487926861.18,57952,8.5,71664.3,-5.13,-25.91,-26.39,0,*5A
1487926862.39,57953,8.5,71676.0,-5.17,-25.91,-26.39,0,*5F
1487926863.63,57954,8.5,71656.0,-5.13,-25.55,-25.87,0,*52
1487926864.83,57955,8.5,71706.0,-5.17,-25.61,-25.91,0,*57
1487926866.09,57956,8.5,71688.5,-5.17,-25.45,-25.75,0,*58
1487926867.35,57957,8.5,71696.5,-5.19,-25.65,-25.81,0,*5E
1487926868.59,57958,8.5,71678.0,-5.19,-25.61,-25.65,0,*5F
1487926869.84,57959,8.5,71626.5,-5.17,-25.45,-25.55,0,*55
1487926871.05,57960,8.5,71636.0,-5.17,-25.13,-25.13,0,*5E
1487926872.29,57961,8.5,71634.8,-5.17,-25.39,-25.45,0,*54
1487926873.51,57962,8.5,71656.8,-5.17,-24.97,-24.83,0,*59
1487926874.72,57963,8.5,71664.8,-5.17,-24.97,-24.77,0,*53
1487926875.95,57964,8.5,71686.0,-5.13,-25.09,-24.87,0,*59
1487926877.19,57965,8.5,71644.3,-5.13,-24.57,-24.25,0,*5A
1487926878.43,57966,8.5,71638.5,-5.17,-24.47,-24.25,0,*5C
1487926879.69,57967,8.5,71678.8,-5.17,-24.41,-23.99,0,*5B
1487926880.92,57968,8.5,71646.0,-5.13,-24.57,-24.25,0,*57
1487926882.15,57969,8.5,71674.5,-5.13,-24.87,-24.57,0,*5E
1487926883.36,57970,8.5,71688.8,-5.13,-24.61,-24.35,0,*5A
1487926884.57,57971,8.5,71668.0,-5.13,-24.05,-23.75,0,*5A
1487926885.83,57972,8.5,71706.0,-5.11,-24.21,-23.89,0,*5E
1487926887.06,57973,8.5,71670.0,-5.09,-24.21,-23.89,0,*56
1487926888.29,57974,8.5,71598.3,-5.09,-24.67,-24.35,0,*53
1487926889.57,57975,8.5,71644.5,-5.07,-24.67,-24.41,0,*5F
1487926890.85,57976,8.5,71600.3,-5.07,-24.15,-23.85,0,*56
1487926892.08,57977,8.5,71572.5,-5.07,-24.61,-24.31,0,*5C
1487926893.31,57978,8.5,71586.0,-5.11,-24.57,-24.51,0,*57
1487926894.57,57979,8.5,71588.5,-5.09,-24.83,-24.67,0,*53
1487926895.8,57980,8.56,71616.3,-5.09,-25.19,-25.03,0,*54
1487926897.02,57981,8.5,71572.0,-5.09,-24.97,-24.83,0,*5B
1487926898.25,57982,8.56,71584.5,-5.11,-25.09,-24.93,0,*56
1487926899.51,57983,8.5,71600.5,-5.11,-25.03,-24.77,0,*57
1487926900.74,57984,8.5,71652.5,-5.11,-24.77,-24.57,0,*50
1487926902.0,57985,8.5,71630.5,-5.11,-24.35,-24.25,0,*52
1487926903.26,57986,8.5,71630.3,-5.11,-24.21,-24.05,0,*56
1487926904.49,57987,8.5,71598.8,-5.11,-24.77,-24.61,0,*56
1487926905.73,57988,8.5,71574.5,-5.11,-24.77,-24.61,0,*59
1487926906.99,57989,8.5,71590.5,-5.11,-24.71,-24.51,0,*5D
1487926908.25,57990,8.5,71648.0,-5.11,-24.41,-24.35,0,*54
1487926909.53,57991,8.5,71546.3,-5.11,-24.21,-24.11,0,*55
1487926910.79,57992,8.5,71496.8,-5.11,-24.71,-24.51,0,*57
1487926912.02,57993,8.5,71592.0,-5.11,-24.61,-24.35,0,*55
1487926913.31,57994,8.5,71570.0,-5.11,-24.41,-24.25,0,*51
1487926914.56,57995,8.5,71598.8,-5.11,-24.05,-23.65,0,*53
1487926915.82,57996,8.5,71560.3,-5.11,-24.21,-24.05,0,*57
1487926917.1,57997,8.5,71526.0,-5.11,-24.11,-23.65,0,*54
1487926918.37,57998,8.5,71514.0,-5.11,-23.53,-23.09,0,*50
1487926919.62,57999,8.5,71446.8,-5.11,-23.29,-22.83,0,*5F
1487926920.86,58000,8.5,71482.5,-5.09,-23.49,-23.09,0,*55
1487926922.06,58001,8.56,71468.5,-5.09,-22.41,-22.11,0,*55
1487926923.32,58002,8.56,71512.8,-5.07,-22.31,-22.03,0,*5C
1487926924.55,58003,8.5,71546.0,-5.05,-22.31,-22.03,0,*5F
1487926925.79,58004,8.5,71516.3,-5.05,-22.17,-21.77,0,*5C
1487926927.03,58005,8.56,71588.8,-5.05,-21.93,-21.57,0,*50
1487926928.25,58006,8.5,71626.3,-5.01,-21.73,-21.57,0,*59
1487926929.51,58007,8.5,71588.8,-5.01,-21.97,-21.67,0,*51
1487926930.77,58008,8.5,71554.8,-4.97,-22.21,-22.11,0,*5C
1487926931.98,58009,8.56,71564.3,-4.95,-22.93,-22.93,0,*5C
1487926933.19,58010,8.5,71496.8,-4.95,-23.09,-23.09,0,*54
1487926934.42,58011,8.5,71530.8,-4.95,-23.03,-22.87,0,*58
1487926935.67,58012,8.56,71570.0,-4.95,-22.73,-22.73,0,*56
1487926936.87,58013,8.5,71590.5,-4.95,-22.87,-22.87,0,*57
1487926938.08,58014,8.5,71590.5,-4.95,-22.87,-22.93,0,*55
1487926939.31,58015,8.5,71622.5,-4.95,-22.77,-22.87,0,*5E
1487926940.52,58016,8.5,71638.3,-4.91,-22.57,-22.67,0,*55
1487926941.8,58017,8.5,71606.5,-4.93,-23.49,-23.53,0,*5E
1487926943.05,58018,8.5,71626.5,-4.93,-23.39,-23.53,0,*56
1487926944.31,58019,8.5,71614.0,-4.93,-23.03,-23.13,0,*5A
1487926945.6,58020,8.5,71560.0,-4.93,-23.19,-23.49,0,*54
1487926946.86,58021,8.5,71596.8,-4.93,-22.03,-22.17,0,*55
1487926948.09,58022,8.5,71532.0,-4.91,-23.03,-23.13,0,*50
1487926949.36,58023,8.5,71576.0,-4.89,-23.29,-23.43,0,*55
1487926950.64,58024,8.5,71548.8,-4.89,-23.29,-23.33,0,*55
1487926951.86,58025,8.5,71514.5,-4.87,-22.93,-22.93,0,*51
1487926953.1,58026,8.56,71538.8,-4.89,-22.97,-22.97,0,*5C
1487926954.33,58027,8.5,71556.3,-4.89,-23.13,-23.13,0,*5D
1487926955.54,58028,8.5,71610.0,-4.87,-22.67,-22.67,0,*5C
1487926956.8,58029,8.5,71626.0,-4.89,-22.47,-22.53,0,*56
1487926958.01,58030,8.5,71628.0,-4.87,-22.11,-22.27,0,*50
1487926959.21,58031,8.5,71698.3,-4.87,-22.03,-22.27,0,*52
1487926960.45,58032,8.5,71568.0,-4.87,-22.47,-22.63,0,*51
1487926961.67,58033,8.5,71550.5,-4.85,-23.39,-23.89,0,*5F
1487926962.93,58034,8.5,71432.5,-4.85,-23.29,-23.59,0,*54
1487926964.19,58035,8.5,71576.8,-4.85,-23.09,-23.29,0,*50
1487926965.42,58036,8.5,71558.3,-4.85,-22.87,-23.09,0,*56
1487926966.68,58037,8.56,71608.0,-4.85,-22.87,-23.03,0,*5D
1487926967.91,58038,8.5,71602.8,-4.85,-23.39,-23.75,0,*57
1487926969.13,58039,8.56,71620.5,-4.85,-23.39,-23.89,0,*55
1487926970.4,58040,8.5,71618.3,-4.85,-23.43,-23.85,0,*5A
1487926971.63,58041,8.5,71640.3,-4.87,-23.75,-24.11,0,*56
1487926972.86,58042,8.5,71650.8,-4.87,-23.75,-24.11,0,*55
1487926974.07,58043,8.5,71650.0,-4.87,-23.75,-24.05,0,*51
1487926975.31,58044,8.5,71656.8,-4.87,-23.79,-24.21,0,*5C
1487926976.55,58045,8.5,71654.3,-4.87,-23.89,-24.21,0,*52
1487926977.76,58046,8.5,71624.8,-4.91,-24.05,-24.47,0,*55
1487926979.03,58047,8.5,71658.0,-4.89,-24.31,-24.71,0,*5F
1487926980.26,58048,8.5,71674.0,-4.87,-24.21,-24.57,0,*5B
1487926981.53,58049,8.56,71608.5,-4.89,-24.41,-24.77,0,*50
1487926982.76,58050,8.5,71664.8,-4.91,-24.15,-24.47,0,*53
1487926983.99,58051,8.5,71650.3,-4.91,-24.15,-24.47,0,*52
1487926985.22,58052,8.5,71644.3,-4.91,-24.11,-24.31,0,*54
1487926986.46,58053,8.56,71692.5,-4.93,-24.61,-24.77,0,*52
1487926987.7,58054,8.5,71636.5,-4.93,-24.35,-24.61,0,*53
1487926988.96,58055,8.5,71688.5,-4.93,-24.11,-24.35,0,*55
1487926990.17,58056,8.5,71664.5,-4.91,-24.35,-24.77,0,*54
1487926991.41,58057,8.5,71626.5,-4.93,-24.47,-24.77,0,*52
1487926992.67,58058,8.5,71676.3,-4.93,-24.35,-24.67,0,*59
1487926993.93,58059,8.5,71678.5,-4.95,-24.67,-25.03,0,*5A
1487926995.2,58060,8.5,71644.8,-4.97,-24.71,-25.19,0,*5E
1487926996.46,58061,8.5,71666.5,-4.97,-24.83,-25.19,0,*52
1487926997.72,58062,8.5,71692.0,-4.97,-24.83,-25.13,0,*5B
1487926998.99,58063,8.5,71702.3,-4.97,-24.41,-24.97,0,*59
1487927000.22,58064,8.5,71704.0,-5.01,-24.35,-24.71,0,*5B
1487927001.43,58065,8.5,71690.3,-5.01,-24.57,-24.77,0,*58
1487927002.64,58066,8.5,71704.0,-5.01,-23.59,-24.05,0,*57
1487927003.86,58067,8.5,71668.8,-5.01,-23.95,-24.35,0,*55
1487927005.12,58068,8.5,71690.8,-4.97,-23.99,-24.35,0,*58
1487927006.32,58069,8.5,71720.0,-5.01,-23.89,-24.35,0,*56
1487927007.53,58070,8.56,71738.3,-5.01,-24.05,-24.47,0,*58
1487927008.76,58071,8.56,71690.5,-5.03,-24.61,-25.23,0,*5A
1487927009.99,58072,8.56,71618.8,-5.03,-25.19,-25.61,0,*51
1487927011.25,58073,8.5,71634.0,-5.03,-24.47,-25.03,0,*5E
1487927012.49,58074,8.5,71670.3,-5.03,-24.47,-24.77,0,*5B
1487927013.76,58075,8.5,71608.3,-5.03,-23.75,-24.21,0,*5F
1487927015.0,58076,8.5,71626.0,-5.01,-24.25,-24.77,0,*5F
1487927016.2,58077,8.5,71626.8,-5.01,-24.77,-25.23,0,*59
1487927017.46,58078,8.5,71566.5,-5.01,-25.03,-25.55,0,*55
1487927018.68,58079,8.5,71574.5,-5.05,-25.13,-25.61,0,*56
1487927019.96,58080,8.5,71608.0,-5.07,-25.29,-25.75,0,*5E
1487927021.2,58081,8.5,71642.3,-5.07,-24.51,-24.97,0,*5C
1487927022.46,58082,8.5,71620.5,-5.07,-23.99,-24.47,0,*51
1487927023.74,58083,8.5,71634.3,-5.07,-23.85,-24.25,0,*59
1487927025.02,58084,8.5,71652.0,-5.07,-23.95,-24.41,0,*5D
1487927026.28,58085,8.5,71618.5,-5.05,-23.95,-24.41,0,*5E
1487927027.54,58086,8.5,71620.0,-5.07,-24.11,-24.61,0,*56
1487927028.79,58087,8.5,71634.0,-5.07,-24.15,-24.47,0,*57
1487927030.05,58088,8.5,71614.5,-5.05,-24.15,-24.67,0,*58
1487927031.31,58089,8.56,71590.5,-5.07,-24.31,-24.67,0,*5D
1487927032.56,58090,8.5,71580.3,-5.07,-24.11,-24.47,0,*55
1487927033.8,58091,8.5,71602.5,-5.05,-24.15,-24.51,0,*55
1487927035.05,58092,8.5,71608.5,-5.07,-24.31,-24.67,0,*57
1487927036.27,58093,8.5,71606.3,-5.05,-24.61,-24.97,0,*5E
1487927037.5,58094,8.5,71604.8,-5.07,-24.77,-25.13,0,*51
1487927038.74,58095,8.5,71628.0,-5.07,-24.77,-25.13,0,*50
1487927039.98,58096,8.5,71650.3,-5.05,-24.51,-24.83,0,*5D
1487927041.21,58097,8.5,71622.3,-5.07,-24.61,-24.97,0,*58
1487927042.44,58098,8.5,71608.5,-5.07,-24.97,-25.23,0,*50
1487927043.69,58099,8.5,71582.5,-5.07,-24.67,-24.93,0,*54
1487927044.95,58100,8.5,71606.5,-5.07,-24.67,-24.97,0,*51
1487927046.17,58101,8.5,71612.3,-5.07,-24.97,-25.23,0,*51
1487927047.37,58102,8.5,71624.0,-5.09,-24.93,-25.13,0,*5B
1487927048.6,58103,8.5,71576.5,-5.09,-25.03,-25.19,0,*58
1487927049.83,58104,8.56,71498.5,-5.09,-25.19,-25.45,0,*5D
1487927051.06,58105,8.5,71544.8,-5.09,-25.03,-25.19,0,*5E
1487927052.3,58106,8.5,71624.0,-5.11,-25.35,-25.49,0,*54
1487927053.52,58107,8.5,71622.3,-5.11,-25.09,-25.35,0,*51
1487927054.75,58108,8.56,71612.5,-5.11,-25.09,-25.35,0,*5E
1487927055.99,58109,8.5,71648.0,-5.09,-25.13,-25.29,0,*50
1487927057.22,58110,8.5,71634.8,-5.11,-25.35,-25.39,0,*54
1487927058.51,58111,8.5,71612.5,-5.11,-25.55,-25.55,0,*59
1487927059.77,58112,8.5,71582.3,-5.11,-25.65,-25.71,0,*5F
1487927061.06,58113,8.5,71584.3,-5.11,-25.55,-25.71,0,*5D
1487927062.3,58114,8.5,71632.3,-5.11,-25.49,-25.65,0,*52
1487927063.55,58115,8.56,71664.3,-5.11,-24.87,-24.93,0,*58
1487927064.78,58116,8.5,71694.3,-5.11,-25.23,-25.19,0,*57
1487927066.03,58117,8.5,71620.8,-5.11,-24.87,-24.93,0,*5A
1487927067.24,58118,8.5,71630.3,-5.09,-25.13,-25.19,0,*53
1487927068.5,58119,8.5,71590.0,-5.11,-24.77,-24.71,0,*57
1487927069.75,58120,8.5,71630.0,-5.09,-24.67,-24.83,0,*58
1487927071.01,58121,8.5,71688.5,-5.11,-25.03,-25.19,0,*51
1487927072.26,58122,8.5,71682.8,-5.11,-24.87,-24.93,0,*5C
1487927073.54,58123,8.5,71714.5,-5.07,-24.83,-24.83,0,*5F
1487927074.78,58124,8.5,71732.0,-5.09,-25.03,-25.13,0,*57
1487927076.01,58125,8.5,71658.8,-5.09,-24.83,-24.97,0,*52
1487927077.24,58126,8.5,71680.3,-5.09,-24.87,-24.97,0,*55
1487927078.5,58127,8.5,71658.3,-5.11,-25.09,-25.03,0,*56
1487927079.75,58128,8.5,71636.5,-5.09,-25.29,-25.45,0,*50
1487927080.98,58129,8.5,71670.3,-5.09,-25.03,-25.13,0,*5A
1487927082.21,58130,8.5,71660.3,-5.07,-24.93,-25.09,0,*5F
1487927083.44,58131,8.5,71662.3,-5.07,-25.13,-25.23,0,*5F
1487927084.7,58132,8.5,71684.3,-5.07,-25.13,-25.29,0,*56
1487927085.93,58133,8.5,71700.8,-5.07,-25.09,-25.13,0,*55
1487927087.16,58134,8.5,71672.5,-5.07,-24.97,-25.13,0,*54
1487927088.42,58135,8.5,71660.5,-5.09,-25.03,-25.29,0,*5E
1487927089.68,58136,8.5,71616.3,-5.07,-25.55,-25.65,0,*58
1487927090.95,58137,8.5,71656.3,-5.07,-25.55,-25.61,0,*5D
1487927092.2,58138,8.56,71656.5,-5.07,-25.39,-25.45,0,*5E
1487927093.41,58139,8.5,71618.5,-5.09,-25.13,-25.13,0,*5A
1487927094.67,58140,8.5,71628.5,-5.07,-25.29,-25.39,0,*5B
1487927095.95,58141,8.5,71608.0,-5.07,-25.45,-25.55,0,*5A
1487927097.23,58142,8.5,71640.3,-5.07,-25.75,-25.81,0,*53
1487927098.49,58143,8.5,71664.0,-5.07,-25.39,-25.29,0,*58
1487927099.76,58144,8.5,71686.8,-5.07,-25.45,-25.45,0,*5E
1487927101.02,58145,8.56,71672.5,-5.07,-25.97,-25.91,0,*59
1487927102.25,58146,8.56,71642.5,-5.07,-26.07,-26.07,0,*5C
1487927103.51,58147,8.5,71630.3,-5.09,-25.97,-25.71,0,*5B
1487927104.72,58148,8.5,71638.3,-5.09,-25.91,-25.87,0,*5B
1487927105.98,58149,8.5,71650.3,-5.11,-25.91,-25.75,0,*5E
1487927107.19,58150,8.5,71650.8,-5.09,-25.49,-25.35,0,*5E
1487927108.47,58151,8.5,71686.5,-5.11,-25.75,-25.71,0,*59
1487927109.71,58152,8.5,71672.5,-5.09,-26.13,-26.03,0,*56
1487927110.97,58153,8.5,71624.3,-5.11,-25.91,-25.71,0,*51
1487927112.2,58154,8.5,71610.3,-5.09,-25.19,-24.87,0,*57
1487927113.45,58155,8.5,71606.0,-5.11,-25.35,-25.03,0,*5C
1487927114.66,58156,8.5,71620.0,-5.09,-25.61,-25.35,0,*52
1487927115.91,58157,8.5,71616.8,-5.09,-25.29,-25.03,0,*5A
1487927117.14,58158,8.5,71632.5,-5.09,-24.87,-24.51,0,*56
1487927118.4,58159,8.5,71648.0,-5.09,-24.87,-24.67,0,*52
1487927119.63,58160,8.5,71640.3,-5.05,-25.61,-25.29,0,*56
1487927120.89,58161,8.5,71642.0,-5.07,-25.81,-25.39,0,*5A
1487927122.14,58162,8.5,71658.0,-5.07,-25.65,-25.29,0,*52
1487927123.4,58163,8.5,71642.8,-5.07,-25.91,-25.55,0,*53
1487927124.67,58164,8.5,71660.5,-5.05,-26.29,-25.81,0,*5F
1487927125.93,58165,8.5,71656.5,-5.07,-26.13,-25.65,0,*5F
1487927127.21,58166,8.5,71684.5,-5.07,-26.29,-25.75,0,*54
1487927128.48,58167,8.5,71716.8,-5.07,-25.55,-25.13,0,*5D
1487927129.71,58168,8.5,71690.8,-5.07,-25.61,-25.09,0,*5E
1487927130.99,58169,8.56,71708.8,-5.07,-25.97,-25.45,0,*5E
1487927132.2,58170,8.5,71724.3,-5.05,-25.39,-24.77,0,*50
1487927133.43,58171,8.56,71688.0,-5.05,-25.29,-24.77,0,*50
1487927134.64,58172,8.5,71636.3,-5.05,-25.61,-24.97,0,*51
1487927135.85,58173,8.5,71610.3,-5.05,-25.91,-25.39,0,*5A
1487927137.09,58174,8.5,71670.8,-5.05,-26.23,-25.55,0,*5D
1487927138.33,58175,8.5,71676.0,-5.05,-26.29,-25.61,0,*51
1487927139.59,58176,8.5,71688.8,-5.05,-26.55,-25.75,0,*5C
1487927140.85,58177,8.5,71704.0,-5.05,-26.55,-25.81,0,*56
1487927142.09,58178,8.5,71674.3,-5.07,-26.45,-25.65,0,*50
1487927143.37,58179,8.56,71710.5,-5.07,-26.55,-25.75,0,*51
1487927144.63,58180,8.56,71664.0,-5.07,-26.55,-25.65,0,*56
1487927145.91,58181,8.5,71644.3,-5.07,-26.77,-25.81,0,*5D
1487927147.17,58182,8.56,71692.3,-5.07,-26.39,-25.45,0,*5C
1487927148.41,58183,8.5,71702.3,-5.07,-26.39,-25.61,0,*5B
1487927149.67,58184,8.5,71636.0,-5.07,-26.65,-25.75,0,*50
1487927150.94,58185,8.5,71656.3,-5.07,-26.65,-25.75,0,*51
1487927152.17,58186,8.5,71676.8,-5.07,-26.23,-25.39,0,*58
1487927153.43,58187,8.5,71702.8,-5.07,-25.75,-24.93,0,*58
1487927154.65,58188,8.5,71686.0,-5.07,-25.91,-24.93,0,*5D
1487927155.91,58189,8.56,71692.3,-5.05,-25.81,-24.83,0,*5E
1487927157.17,58190,8.56,71698.5,-5.07,-25.97,-24.93,0,*52
1487927158.39,58191,8.5,71688.0,-5.07,-26.23,-25.23,0,*55
1487927159.63,58192,8.5,71684.8,-5.05,-26.55,-25.39,0,*5E
1487927160.86,58193,8.56,71630.3,-5.03,-26.39,-25.39,0,*53
1487927162.11,58194,8.5,71636.3,-5.07,-26.23,-25.29,0,*5A
1487927163.37,58195,8.5,71696.8,-5.07,-25.91,-24.83,0,*50
1487927164.62,58196,8.56,71658.5,-5.07,-26.13,-25.23,0,*51
1487927165.83,58197,8.5,71692.3,-5.05,-26.39,-25.39,0,*51
1487927167.04,58198,8.5,71672.0,-5.05,-26.23,-25.23,0,*5E
1487927168.27,58199,8.56,71704.0,-5.07,-25.91,-24.93,0,*5D
1487927169.52,58200,8.56,71692.8,-5.07,-25.91,-24.83,0,*5F
1487927170.73,58201,8.5,71692.8,-5.05,-25.65,-24.51,0,*58
1487927171.96,58202,8.5,71650.8,-5.05,-26.13,-24.97,0,*53
1487927173.2,58203,8.5,71628.0,-5.07,-26.61,-25.61,0,*5D
1487927174.43,58204,8.5,71604.5,-5.05,-26.29,-25.23,0,*52
1487927175.67,58205,8.56,71640.8,-5.05,-25.97,-24.93,0,*5F
1487927176.91,58206,8.5,71618.8,-5.05,-25.97,-24.77,0,*56
1487927178.14,58207,8.5,71564.5,-5.05,-26.07,-24.83,0,*56
1487927179.38,58208,8.56,71618.5,-5.05,-25.55,-24.31,0,*54
1487927180.61,58209,8.5,71558.5,-5.05,-25.09,-23.85,0,*54
1487927181.88,58210,8.5,71620.5,-5.01,-25.55,-24.25,0,*5C
1487927183.13,58211,8.5,71626.0,-5.03,-25.49,-24.11,0,*55
1487927184.33,58212,8.56,71664.3,-5.01,-25.39,-24.05,0,*56
1487927185.59,58213,8.5,71674.8,-5.01,-25.55,-24.21,0,*5B
1487927186.79,58214,8.5,71648.8,-5.01,-25.61,-24.35,0,*5E
1487927187.99,58215,8.5,71680.5,-5.01,-26.23,-24.77,0,*5C
1487927189.19,58216,8.5,71660.3,-5.01,-26.23,-24.77,0,*5F
1487927190.39,58217,8.5,71656.8,-5.01,-26.07,-24.61,0,*5F
1487927191.67,58218,8.5,71664.5,-4.97,-26.13,-24.67,0,*5D
1487927192.94,58219,8.5,71638.0,-4.97,-26.49,-24.87,0,*5D
1487927194.19,58220,8.5,71648.3,-4.97,-26.45,-24.83,0,*5F
1487927195.48,58221,8.5,71608.3,-4.97,-26.55,-25.03,0,*56
1487927196.73,58222,8.56,71674.3,-4.97,-26.71,-25.19,0,*58
1487927197.97,58223,8.5,71630.0,-5.01,-26.77,-25.23,0,*58
1487927199.17,58224,8.56,71628.8,-5.01,-26.87,-25.23,0,*50
1487927200.4,58225,8.5,71586.3,-5.03,-26.87,-25.23,0,*53
1487927201.65,58226,8.56,71646.0,-5.01,-27.19,-25.55,0,*55
1487927202.9,58227,8.5,71634.5,-5.03,-27.19,-25.35,0,*50
1487927204.15,58228,8.5,71628.8,-5.03,-26.93,-25.35,0,*5C
1487927205.38,58229,8.5,71672.3,-5.03,-26.87,-25.19,0,*56
1487927206.62,58230,8.56,71642.5,-5.03,-27.07,-25.39,0,*55
1487927207.84,58231,8.5,71656.5,-5.03,-26.87,-25.23,0,*56
1487927209.08,58232,8.5,71672.3,-5.05,-26.93,-25.23,0,*56
1487927210.31,58233,8.5,71658.3,-5.03,-27.03,-25.23,0,*59
1487927211.57,58234,8.5,71572.5,-5.05,-27.23,-25.45,0,*5A
1487927212.8,58235,8.5,71634.8,-5.03,-27.51,-25.65,0,*5A
1487927214.02,58236,8.5,71624.5,-5.05,-27.29,-25.39,0,*59
1487927215.28,58237,8.5,71620.8,-5.07,-26.93,-25.09,0,*59
1487927216.54,58238,8.56,71576.8,-5.05,-26.55,-24.67,0,*57
1487927217.77,58239,8.5,71642.0,-5.07,-26.61,-24.77,0,*52
1487927219.02,58240,8.5,71600.8,-5.07,-26.55,-24.61,0,*5C
1487927220.23,58241,8.5,71646.3,-5.05,-26.39,-24.47,0,*51
1487927221.47,58242,8.5,71626.8,-5.05,-26.81,-24.93,0,*58
1487927222.69,58243,8.5,71592.0,-5.05,-27.07,-25.23,0,*5C
1487927223.94,58244,8.56,71610.3,-5.07,-26.77,-24.97,0,*51
1487927225.16,58245,8.5,71614.3,-5.05,-26.39,-24.61,0,*51
1487927226.39,58246,8.5,71638.0,-5.05,-26.29,-24.47,0,*57
1487927227.6,58247,8.5,71644.3,-5.05,-26.23,-24.47,0,*5C
1487927228.85,58248,8.5,71614.8,-5.07,-26.13,-24.47,0,*52
1487927230.08,58249,8.5,71598.3,-5.07,-26.45,-24.77,0,*53
1487927231.33,58250,8.56,71610.0,-5.07,-26.39,-24.67,0,*51
1487927232.59,58251,8.56,71638.0,-5.07,-26.29,-24.61,0,*57
1487927233.81,58252,8.5,71620.8,-5.05,-26.23,-24.67,0,*5A
1487927235.07,58253,8.5,71628.0,-5.07,-26.55,-24.93,0,*53
1487927236.32,58254,8.5,71608.0,-5.05,-26.29,-24.67,0,*56
1487927237.53,58255,8.5,71640.8,-5.05,-26.61,-24.93,0,*50
1487927238.76,58256,8.5,71636.0,-5.07,-26.23,-24.61,0,*5A
1487927239.99,58257,8.5,71626.5,-5.05,-26.39,-24.67,0,*54
1487927241.22,58258,8.5,71608.5,-5.05,-26.55,-24.93,0,*5A
1487927242.45,58259,8.5,71626.0,-5.05,-26.39,-24.83,0,*50
1487927243.66,58260,8.5,71610.5,-5.05,-26.45,-24.77,0,*5A
1487927244.87,58261,8.5,71594.0,-5.05,-26.45,-24.93,0,*51
1487927246.13,58262,8.5,71522.0,-5.07,-26.39,-24.83,0,*5A
1487927247.38,58263,8.5,71556.5,-5.07,-25.97,-24.51,0,*53
1487927248.59,58264,8.5,71606.8,-5.05,-25.91,-24.47,0,*57
1487927249.84,58265,8.5,71612.0,-5.03,-25.75,-24.35,0,*5F
1487927251.07,58266,8.5,71616.3,-5.03,-25.91,-24.47,0,*53
1487927252.32,58267,8.56,71646.3,-5.03,-25.87,-24.41,0,*53
1487927253.55,58268,8.5,71640.0,-5.03,-25.49,-23.79,0,*52
1487927254.78,58269,8.5,71638.5,-5.03,-25.35,-23.75,0,*54
1487927256.0,58270,8.56,71562.5,-5.01,-25.23,-23.65,0,*58
1487927257.27,58271,8.5,71540.3,-4.97,-24.83,-23.09,0,*56
1487927258.52,58272,8.5,71552.3,-4.97,-24.15,-22.37,0,*56
1487927259.75,58273,8.5,71566.5,-4.95,-23.69,-21.93,0,*54
1487927260.98,58274,8.5,71620.8,-4.91,-23.69,-21.77,0,*5D
1487927262.21,58275,8.5,71568.0,-4.91,-23.85,-22.03,0,*5E
1487927263.44,58276,8.5,71622.3,-4.87,-23.79,-21.97,0,*57
1487927264.66,58277,8.5,71624.0,-4.87,-24.47,-22.63,0,*54
1487927265.94,58278,8.5,71630.3,-4.85,-24.15,-22.21,0,*58
1487927267.2,58279,8.5,71614.0,-4.83,-24.21,-22.21,0,*58
1487927268.47,58280,8.5,71642.0,-4.83,-24.25,-22.31,0,*5B
1487927269.68,58281,8.5,71636.8,-4.79,-24.47,-22.53,0,*5F
1487927270.96,58282,8.56,71632.5,-4.81,-24.67,-22.73,0,*5B
1487927272.17,58283,8.5,71626.3,-4.79,-24.77,-22.83,0,*53
1487927273.4,58284,8.56,71624.3,-4.79,-24.83,-22.83,0,*5F
1487927274.63,58285,8.5,71644.8,-4.77,-24.93,-22.97,0,*54
1487927275.86,58286,8.5,71634.3,-4.77,-25.09,-23.09,0,*53
1487927277.11,58287,8.5,71604.8,-4.77,-25.23,-23.29,0,*58
1487927278.36,58288,8.5,71652.3,-4.73,-25.35,-23.29,0,*54
1487927279.6,58289,8.5,71680.8,-4.77,-25.39,-23.43,0,*51
1487927280.87,58290,8.5,71658.0,-4.77,-25.45,-23.49,0,*58
1487927282.12,58291,8.5,71554.3,-4.73,-26.13,-23.89,0,*51
1487927283.42,58292,8.56,71620.0,-4.73,-26.33,-24.21,0,*55
1487927284.67,58293,8.5,71640.5,-4.77,-26.61,-24.41,0,*51
1487927285.93,58294,8.5,71652.8,-4.77,-26.61,-24.41,0,*56
1487927287.13,58295,8.5,71670.5,-4.79,-26.61,-24.31,0,*5E
1487927288.36,58296,8.56,71694.0,-4.79,-25.91,-23.65,0,*57
1487927289.6,58297,8.5,71684.3,-4.81,-26.23,-23.99,0,*58
1487927290.84,58298,8.5,71666.5,-4.79,-26.45,-24.21,0,*54
1487927292.09,58299,8.5,71678.5,-4.77,-26.17,-24.05,0,*5A
1487927293.34,58300,8.5,71682.5,-4.81,-25.91,-23.53,0,*5B
1487927294.6,58301,8.5,71674.0,-4.81,-26.23,-23.85,0,*5B
1487927295.85,58302,8.5,71636.8,-4.81,-26.61,-24.11,0,*54
1487927297.07,58303,8.5,71608.8,-4.79,-26.49,-24.11,0,*58
1487927298.32,58304,8.5,71608.3,-4.81,-26.45,-24.15,0,*50
1487927299.55,58305,8.5,71626.8,-4.79,-26.77,-24.47,0,*50
1487927300.83,58306,8.5,71662.0,-4.81,-26.29,-23.99,0,*5B
1487927302.08,58307,8.5,71660.3,-4.81,-26.07,-23.95,0,*5A
1487927303.36,58308,8.5,71668.5,-4.81,-26.13,-23.95,0,*50
1487927304.6,58309,8.5,71704.8,-4.83,-26.03,-23.85,0,*53
1487927305.84,58310,8.5,71694.8,-4.83,-25.71,-23.43,0,*57
1487927307.12,58311,8.5,71676.3,-4.85,-26.13,-23.99,0,*50
1487927308.35,58312,8.5,71678.8,-4.83,-26.29,-23.89,0,*5D
1487927309.56,58313,8.56,71698.8,-4.83,-25.39,-23.09,0,*56
1487927310.81,58314,8.5,71684.8,-4.83,-25.03,-22.73,0,*54
1487927312.07,58315,8.5,71710.8,-4.85,-25.39,-23.03,0,*5C